OpenBCM V2.0.3 (Linux)

Packet Radio Mailbox

IZ3LSV

[San Dona' di P. JN]

 Login: GUEST





  
CX2SA  > KEP      07.12.19 02:03l 86 Lines 3614 Bytes #999 (0) @ ARL
BID : ARLK094
Read: GUEST
Subj: ARLK094 Keplerian data
Path: IZ3LSV<IQ5KG<I0OJJ<N6RME<CX2SA
Sent: 191206/2346Z @:CX2SA.SAL.URY.SOAM #:20288 [Salto] FBB7.00e $:ARLK094
From: CX2SA@CX2SA.SAL.URY.SOAM
To  : KEP@ARL


ZCZC SK94
QST de W1AW
Keplerian Bulletin 94  ARLK094
From ARRL Headquarters
Newington, CT  December 6, 2019
To all radio amateurs

SB KEP ARL ARLK094
ARLK094 Keplerian data

Special thanks to AMSAT-NA (AMSAT.ORG) for the following Keplerian
data.

Decode 2-line elsets with the following key:
1 AAAAAU 00  0  0 BBBBB.BBBBBBBB  .CCCCCCCC  00000-0  00000-0 0  DDDZ
2 AAAAA EEE.EEEE FFF.FFFF GGGGGGG HHH.HHHH III.IIII JJ.JJJJJJJJKKKKKZ
KEY: A-CATALOGNUM B-EPOCHTIME C-DECAY D-ELSETNUM E-INCLINATION F-RAAN
G-ECCENTRICITY H-ARGPERIGEE I-MNANOM J-MNMOTION K-ORBITNUM Z-CHECKSUM

0 AO-07
1 7530U 74089B   19340.49501605 -.00000041  00000-0  25393-4 0  9992
2 7530 101.7716 306.5553 0012408  18.6556 104.0724 12.53641025 61928
0 FO-29
1 24278U 96046B   19339.84373495 -.00000001 +00000-0 +33788-4 0  9991
2 24278 098.5625 110.3889 0350721 158.8221 202.7856 13.53095161150566
0 ISS
1 25544U 98067A   19340.65162351 -.00000206  00000-0  44295-5 0  9994
2 25544  51.6436 226.2718 0006901   6.3372  31.6165 15.50090093202011
0 SO-50
1 27607U 02058C   19340.47256295 -.00000062  00000-0  12171-4 0  9999
2 27607  64.5553 247.4494 0070522 222.9405 136.6180 14.75593348912237
0 CO-55
1 27844U 03031E   19340.61227439  .00000051  00000-0  42506-4 0  9990
2 27844  98.6839 346.2696 0008851 255.1191 104.9007 14.22209261852580
0 RS-22
1 27939U 03042A   19340.72544420  .00000087  00000-0  24205-4 0  9996
2 27939  98.0639 113.4645 0011895 243.4029 116.5960 14.66822128865613
0 RS-30
1 32953U 08025A   19340.51183172  .00000021  00000-0  75656-4 0  9998
2 32953  82.5060  38.5281 0020305 116.6683 243.6480 12.43092642523531
0 KKS-1
1 33499U 09002H   19340.57115425  .00000075  00000-0  19060-4 0  9998
2 33499  98.3344 184.6244 0009724  29.5108 330.6647 14.75485615584425
0 AO-71
1 37854U 11061E   19339.90586552 +.00001190 +00000-0 +68036-4 0  9999
2 37854 101.7123 325.7275 0159513 280.1611 078.1643 15.06845935442171
0 AO-73
1 39444U 13066AE  19340.52899258  .00000225  00000-0  33958-4 0  9996
2 39444  97.5578 346.5214 0057874 185.5191 174.5393 14.82022141325235
0 UKUBE 1
1 40074U 14037F   19340.40935153  .00000304  00000-0  43562-4 0  9998
2 40074  98.4491 152.2473 0005683  36.4905 323.6699 14.84149502292970
0 XW-2A
1 40903U 15049E   19340.70231200  .00001433  00000-0  35128-4 0  9991
2 40903  97.3166  24.2728 0011727 243.0555 235.0680 15.42392524236605
0 XW-2F
1 40910U 15049M   19340.47416560  .00000986  00000-0  52374-4 0  9991
2 40910  97.4655 341.7381 0013828 321.4410 166.6019 15.17578102232919
0 XW-2B
1 40911U 15049N   19340.45953485  .00000568  00000-0  33001-4 0  9994
2 40911  97.4720 340.1325 0013354 331.3424 184.7675 15.15982954232778
0 IO-86
1 40931U 15052B   19337.59853776  .00000317  00000-0 -44920-4 0  9998
2 40931   5.9991 299.1110 0012413   7.6203 352.6160 14.76621820226116
0 CAS-4B
1 42759U 17034B   19340.51862934  .00000082  00000-0  18515-4 0  9991
2 42759  43.0206  12.4863 0012464 252.8457 257.3510 15.09696167136652
0 CAS-4A
1 42761U 17034D   19340.53984170  .00000018  00000-0  14626-4 0  9991
2 42761  43.0206  11.7950 0012837 253.8875 260.0980 15.09773500136652
0 AO-91
1 43017U 17073E   19340.33375534  .00000619  00000-0  54143-4 0  9990
2 43017  97.7247 255.0230 0256932 322.9941  35.3785 14.78730945110479
0 AO-92
1 43137U 18004AC  19339.92875641 +.00000743 +00000-0 +33884-4 0  9992
2 43137 097.4701 047.1992 0009849 028.6404 331.5372 15.23752809105422

Keplerian bulletins are transmitted twice weekly from W1AW.  The
next scheduled transmission of these data will be Tuesday, December
10, 2019, at 2230z on Baudot and BPSK31.
NNNN


Read previous mail | Read next mail


 21.09.2026 08:49:32lGo back Go up